{"data":{"norad_id":48581,"intl_designator":"2021-041AE","name":"STARLINK-2235","alt_names":[],"object_type":"PAYLOAD","status":"ACTIVE","operator":null,"country":"US","launch_date":"2021-05-15","launch_site_code":"AFETR","launch_vehicle":null,"mission":null,"orbit_class":"UNKNOWN","rcs_meters":null,"size_class":null,"mass_kg":null,"dimensions":null,"purposes":["comms"],"wikipedia_slug":null,"has_3d_model":false,"image_url":null,"decayed_at":null,"tle_current":{"epoch":"2026-09-19T16:00:16.564032Z","epoch_age_seconds":109277,"freshness":"FRESH","line1":"1 48581U 21041AE  26262.66685838 -.00000936  00000+0 -18398-4 0  9994","line2":"2 48581  53.1596 281.1154 0001173  75.5381 284.5751 15.31699219295318","mean_motion":15.31699219,"eccentricity":0.0001173,"inclination_deg":53.1596,"raan_deg":281.1154,"arg_perigee_deg":75.5381,"mean_anomaly_deg":284.5751,"bstar":-1.8398e-5,"rev_number":29531,"period_min":94.013235897589,"perigee_km":469.93894980237,"apogee_km":471.54569689163,"semimajor_km":6848.879323347,"source":"CELESTRAK","updated_at":"2026-09-20T09:00:39.136793Z"}}}